Location: Unspecified
(41.5516°N, 88.1098°W)
Time: 08:57:54
(UTC-05:00)

Okean 3 - Visible Passes

Search period start: 24 March 2017 00:00
Search period end: 03 April 2017 00:00
Orbit: 577 x 603 km, 82.5° (Epoch: 22 March)

Date Brightness Start Highest point End Pass type
(mag) Time Alt. Az. Time Alt. Az. Time Alt. Az.
24 Mar 5.7 04:20:41 17° NNW 04:20:41 17° NNW 04:21:51 10° N visible
25 Mar 6.8 02:52:31 10° NE 02:52:31 10° NE 02:52:31 10° NE visible
25 Mar 5.8 04:29:04 14° NNW 04:29:04 14° NNW 04:29:50 10° NNW visible
26 Mar 6.6 03:00:52 12° NNE 03:00:52 12° NNE 03:01:10 10° NNE visible
26 Mar 6.0 04:37:25 11° NNW 04:37:25 11° NNW 04:37:38 10° NNW visible
27 Mar 6.5 03:09:12 13° NNE 03:09:12 13° NNE 03:09:41 10° NNE visible
28 Mar 6.3 03:17:31 13° N 03:17:31 13° N 03:18:03 10° N visible
29 Mar 6.3 03:25:50 13° N 03:25:50 13° N 03:26:19 10° N visible
30 Mar 6.3 03:34:08 12° N 03:34:08 12° N 03:34:28 10° N visible
31 Mar 6.3 03:42:25 10° NNW 03:42:25 10° NNW 03:42:28 10° NNW visible
